Location: Newark
(40.3500°N, 15.2333°E)
Time: 18:21:05
(UTC+00:00)

Vanguard 1 - Pass Details

Date: 31 January 2020
Orbit: 650 x 3833 km, 34.2° (Epoch: 16 February)

Event Time Altitude Azimuth Distance (km) Brightness Sun altitude
Rises 19:39:09 0° 259° (W) 3,120 13.5 -38.9°
Reaches altitude 10° 19:42:29 10° 232° (SW) 2,439 12.5 -39.5°
Enters shadow 19:43:20 12° 223° (SW) 2,374 12.3 -39.7°
Maximum altitude 19:45:17 14° 201° (SSW) 2,429 - -40.0°
Drops below altitude 10° 19:48:40 10° 172° (S) 3,071 - -40.6°
Sets 19:54:00 0° 150° (SSE) 4,685 - -41.6°
